Location: ???????
(55.8719°N, 38.1523°E)
Time: 11:02:08
(UTC+00:00)

Cosmos 773 Rocket - Pass Details

Date: 14 April 2024
Orbit: 744 x 773 km, 74.1° (Epoch: 28 May)

Event Time Altitude Azimuth Distance (km) Brightness Sun altitude
Exits shadow 00:21:13 23° 242° (WSW) 1,598 5.1 -15.4°
Maximum altitude 00:24:16 49° 307° (NW) 991 4.5 -15.1°
Drops below altitude 10° 00:29:24 10° 22° (NNE) 2,323 7.6 -14.6°
Sets 00:31:52 0° 28° (NNE) 3,249 8.7 -14.3°
